Regional Weather Roundup
Issued by NWS

Home | Current Version | Previous Version | Text Only | Print | Product List | Glossary On
Versions: 1 2 3 4 5 6 7 8 9 10 11 12 13 14 15 16 17 18 19 20 21 22 23 24 25 26 27 28 29 30 31 32 33 34 35 36 37 38 39 40 41 42 43 44 45 46 47 48 49 50
000
ASUS45 KABQ 051610
RWRNM
NEW MEXICO REGIONAL WEATHER ROUNDUP
NATIONAL WEATHER SERVICE ALBUQUERQUE NM
1000 AM MDT THU MAY 05 2016

NOTE: "FAIR" MEANS FEW OR NO CLOUDS BELOW 12,000 FEET AGL WITH NO
       SIGNIFICANT WEATHER OR OBSTRUCTIONS TO VISION.

      THIS PRODUCT IS RELEASED AS TWO VERSIONS.  ONE VERSION NEAR
      THE TOP OF THE HOUR CONTAINING PRELIMINARY DATA FROM ALBUQUERQUE
      AND OTHER STATIONS.  A FINAL VERSION WITH ADDITIONAL DATA IS
      ISSUED ABOUT 10 MINUTES AFTER THE HOUR.

NMZ501-503-504-510>518-051700-
NORTHWEST PLATEAU/NORTHCENTRAL MOUNTAINS

CITY           SKY/WX    TMP DP  RH WIND       PRES   REMARKS
FARMINGTON     FAIR      69  23  17 E12       30.16F
LOS ALAMOS     FAIR      61 -13   4 E7        30.32S
SANTA FE       FAIR      69  22  16 N5        30.26S
TAOS           FAIR      61  27  27 SW3       30.32S
ANGEL FIRE     FAIR      58  25  28 CALM      30.37F

$$
NMZ402-403-502-505>509-051700-
WESTCENTRAL MOUNTAINS/SOUTHWEST MOUNTAINS

CITY           SKY/WX    TMP DP  RH WIND       PRES   REMARKS
GALLUP         FAIR      70  26  19 MISG      30.19F
GRANTS         FAIR      67  25  20 SE13G20   30.25F
SILVER CITY      N/A     73  25  16 SE20G28   30.20S

$$
NMZ407-409-411-412-051700-
SOUTHERN DESERTS

CITY           SKY/WX    TMP DP  RH WIND       PRES   REMARKS
LORDSBURG      FAIR      75  25  15 E22G29    30.10S
DEMING         FAIR      74  25  16 E16       30.14S
LAS CRUCES     PTSUNNY   71  24  17 E12       30.17S
HOLLOMAN AFB   FAIR      74  21  13 NW3       30.16S
ALAMOGORDO     FAIR      73  21  14 W3        30.18S
T OR C         FAIR      72  20  14 VRB5      30.18S

$$
NMZ519>523-051700-
CENTRAL VALLEYS/CENTRAL HIGHLANDS

CITY           SKY/WX    TMP DP  RH WIND       PRES   REMARKS
ALBUQUERQUE    FAIR      70  26  19 VRB3      30.22S
DOUBLE EAGLE   SUNNY     66  27  22 VRB5      30.25S
MORIARTY ARPT  FAIR      66  20  17 CALM      30.28S
CLINES CORNERS FAIR      67  21  17 SW13      30.29S
BELEN          FAIR      69  20  15 SE7       30.21F
SOCORRO        FAIR      68  24  19 E3        30.19F

$$
NMZ524>526-539-540-051700-
SOUTHCENTRAL MOUNTAINS

CITY           SKY/WX    TMP DP  RH WIND       PRES   REMARKS
RUIDOSO          N/A     66  18  15 S6        30.31F

$$
NMZ527>531-051700-
NORTHEAST HIGHLANDS/NORTHEAST PLAINS

CITY           SKY/WX    TMP DP  RH WIND       PRES   REMARKS
LAS VEGAS      FAIR      67  27  22 VRB6      30.27F
RATON          FAIR      63  29  27 S6        30.23F
CLAYTON        FAIR      75  32  20 SW9       30.16S

$$
NMZ532>537-051700-
EASTCENTRAL PLAINS

CITY           SKY/WX    TMP DP  RH WIND       PRES   REMARKS
TUCUMCARI      FAIR      77  31  18 MISG      30.15S
CANNON AFB     NOT AVBL
CLOVIS AIRPORT FAIR      75  34  22 SW12      30.19S

$$
NMZ028-029-538-051700-
SOUTHEAST PLAINS

CITY           SKY/WX    TMP DP  RH WIND       PRES   REMARKS
ROSWELL        FAIR      71  30  21 CALM      30.16F
ARTESIA        FAIR      72  28  20 VRB3      30.17S
CARLSBAD       FAIR      73  30  20 VRB3      30.15S
HOBBS          SUNNY     77  30  18 S9        30.19S


$$




USA.gov is the U.S. government's official web portal to all federal, state and local government web resources and services.